THY6QT LTFM-LIRF

Flight info

Callsign THY6QT
Flight time 2h 1m
Altitude 40000
Route BARPE1D/35L BARPE UM603 SUTIS DCT DISOR DCT ENFAR DCT RETRA DCT KATTI/N0486F410 DCT ESODU/N0432F190 Z924 MOPUV
Aircraft A359/H-SDE2E3GHIJ3J4J5LM1ORWXY/LB1D1

Departure

Time 2026-05-07 15:17
Airport İstanbul Airport (LTFM)

Arrival

Time 2026-05-07 17:18
Airport Rome–Fiumicino Leonardo da Vinci International Airport (LIRF)
Time Latitude Longitude Altitude Speed Heading
2026-05-07 14:53 41.26784 28.73621 320 ft 0 kts 180°
2026-05-07 15:06 41.26791 28.73621 311 ft 2 kts 182°
2026-05-07 15:07 41.26807 28.73622 314 ft 2 kts 187°
2026-05-07 15:07 41.26823 28.73626 310 ft 2 kts 194°
2026-05-07 15:07 41.26839 28.73633 316 ft 2 kts 204°
2026-05-07 15:07 41.26853 28.73644 316 ft 2 kts 221°
2026-05-07 15:08 41.26864 28.73661 320 ft 2 kts 241°
2026-05-07 15:08 41.26871 28.73681 318 ft 2 kts 258°
2026-05-07 15:08 41.26872 28.73701 315 ft 1 kts 267°
2026-05-07 15:08 41.26873 28.73705 315 ft 0 kts 269°
2026-05-07 15:11 41.26872 28.73700 315 ft 2 kts 268°
2026-05-07 15:11 41.26870 28.73645 320 ft 9 kts 269°
2026-05-07 15:11 41.26871 28.73539 320 ft 14 kts 270°
2026-05-07 15:11 41.26870 28.73396 320 ft 17 kts 269°
2026-05-07 15:12 41.26868 28.73223 319 ft 21 kts 269°
2026-05-07 15:12 41.26860 28.73038 317 ft 17 kts 251°
2026-05-07 15:12 41.26786 28.72992 318 ft 12 kts 182°
2026-05-07 15:12 41.26686 28.72991 319 ft 17 kts 179°
2026-05-07 15:13 41.26555 28.72996 320 ft 21 kts 178°
2026-05-07 15:13 41.26390 28.72999 321 ft 26 kts 179°
2026-05-07 15:13 41.26292 28.73001 321 ft 5 kts 179°
2026-05-07 15:13 41.26247 28.72989 321 ft 8 kts 205°
2026-05-07 15:14 41.26228 28.72965 322 ft 0 kts 236°
2026-05-07 15:14 41.26224 28.72954 321 ft 3 kts 242°
2026-05-07 15:14 41.26218 28.72914 322 ft 5 kts 264°
2026-05-07 15:15 41.26215 28.72853 326 ft 7 kts 268°
2026-05-07 15:15 41.26214 28.72758 329 ft 15 kts 270°
2026-05-07 15:15 41.26216 28.72587 327 ft 15 kts 282°
2026-05-07 15:15 41.26266 28.72530 329 ft 10 kts 346°
2026-05-07 15:16 41.26339 28.72524 327 ft 11 kts 358°
2026-05-07 15:16 41.26475 28.72520 331 ft 42 kts 359°
2026-05-07 15:16 41.27114 28.72509 322 ft 140 kts 359°
2026-05-07 15:16 41.28319 28.72482 789 ft 185 kts 360°
2026-05-07 15:17 41.29641 28.72453 1908 ft 202 kts 358°
2026-05-07 15:17 41.31117 28.72439 2575 ft 215 kts 358°
2026-05-07 15:17 41.32621 28.72460 3173 ft 217 kts 358°
2026-05-07 15:17 41.34142 28.72483 3733 ft 219 kts 357°
2026-05-07 15:18 41.35648 28.72309 4230 ft 219 kts 343°
2026-05-07 15:18 41.36997 28.71417 4718 ft 218 kts 319°
2026-05-07 15:18 41.37922 28.69845 4952 ft 217 kts 295°
2026-05-07 15:18 41.38253 28.67897 4990 ft 220 kts 273°
2026-05-07 15:19 41.38239 28.65750 5075 ft 244 kts 268°
2026-05-07 15:19 41.38176 28.63424 5473 ft 256 kts 269°
2026-05-07 15:19 41.38120 28.61035 6089 ft 260 kts 269°
2026-05-07 15:19 41.37825 28.58651 6698 ft 265 kts 252°
2026-05-07 15:20 41.36874 28.56564 7309 ft 272 kts 228°
2026-05-07 15:20 41.35283 28.55171 7932 ft 280 kts 202°
2026-05-07 15:20 41.33344 28.54831 8556 ft 287 kts 177°
2026-05-07 15:20 41.31337 28.55021 9194 ft 290 kts 179°
2026-05-07 15:21 41.29300 28.55134 9840 ft 294 kts 180°
2026-05-07 15:21 41.27240 28.55208 10350 ft 302 kts 180°
2026-05-07 15:21 41.25081 28.55145 10579 ft 317 kts 189°
2026-05-07 15:21 41.22921 28.54366 10825 ft 330 kts 202°
2026-05-07 15:22 41.20717 28.53258 11066 ft 344 kts 203°
2026-05-07 15:22 41.18442 28.52095 11325 ft 356 kts 202°
2026-05-07 15:22 41.16135 28.50929 11730 ft 362 kts 202°
2026-05-07 15:22 41.13760 28.49739 12222 ft 365 kts 202°
2026-05-07 15:23 41.11377 28.48551 12712 ft 368 kts 202°
2026-05-07 15:23 41.08960 28.47347 13184 ft 372 kts 202°
2026-05-07 15:23 41.06516 28.46183 13675 ft 375 kts 198°
2026-05-07 15:23 41.03980 28.45286 14128 ft 379 kts 194°
2026-05-07 15:24 41.01407 28.44489 14564 ft 382 kts 194°
2026-05-07 15:24 40.98810 28.43689 14983 ft 384 kts 194°
2026-05-07 15:24 40.96194 28.42879 15411 ft 387 kts 194°
2026-05-07 15:24 40.93564 28.42062 15822 ft 390 kts 195°
2026-05-07 15:25 40.90979 28.40976 16227 ft 391 kts 206°
2026-05-07 15:25 40.88744 28.39034 16661 ft 389 kts 225°
2026-05-07 15:25 40.87063 28.36209 17094 ft 388 kts 243°
2026-05-07 15:25 40.86129 28.32883 17539 ft 387 kts 259°
2026-05-07 15:26 40.85603 28.29397 17968 ft 388 kts 261°
2026-05-07 15:26 40.85105 28.25872 18384 ft 391 kts 261°
2026-05-07 15:26 40.84593 28.22330 18761 ft 394 kts 261°
2026-05-07 15:26 40.84071 28.18781 19123 ft 395 kts 261°
2026-05-07 15:27 40.83542 28.15228 19496 ft 397 kts 261°
2026-05-07 15:27 40.83001 28.11602 19859 ft 399 kts 261°
2026-05-07 15:27 40.82457 28.07999 20207 ft 401 kts 261°
2026-05-07 15:27 40.81939 28.04588 20557 ft 403 kts 261°
2026-05-07 15:28 40.81386 28.00945 20922 ft 405 kts 261°
2026-05-07 15:28 40.80828 27.97283 21260 ft 407 kts 261°
2026-05-07 15:28 40.80270 27.93624 21621 ft 408 kts 261°
2026-05-07 15:28 40.79739 27.90098 21932 ft 410 kts 262°
2026-05-07 15:29 40.79438 27.86239 22275 ft 410 kts 271°
2026-05-07 15:29 40.79441 27.82465 22597 ft 411 kts 272°
2026-05-07 15:29 40.79491 27.78680 22921 ft 413 kts 273°
2026-05-07 15:29 40.79540 27.74871 23244 ft 415 kts 272°
2026-05-07 15:30 40.79587 27.71064 23572 ft 416 kts 272°
2026-05-07 15:30 40.79626 27.67240 23844 ft 419 kts 272°
2026-05-07 15:30 40.79666 27.63423 24121 ft 420 kts 273°
2026-05-07 15:30 40.79922 27.59551 24401 ft 419 kts 281°
2026-05-07 15:31 40.80584 27.55805 24685 ft 420 kts 286°
2026-05-07 15:31 40.81360 27.52132 24968 ft 421 kts 287°
2026-05-07 15:31 40.82151 27.48411 25248 ft 422 kts 286°
2026-05-07 15:31 40.82941 27.44666 25535 ft 424 kts 286°
2026-05-07 15:32 40.83727 27.40913 25816 ft 425 kts 286°
2026-05-07 15:32 40.84518 27.37126 26140 ft 427 kts 286°
2026-05-07 15:32 40.85306 27.33341 26467 ft 428 kts 286°
2026-05-07 15:32 40.85828 27.30829 26669 ft 429 kts 286°
2026-05-07 15:33 40.86617 27.27015 27003 ft 431 kts 286°
2026-05-07 15:33 40.87409 27.23183 27322 ft 433 kts 285°
2026-05-07 15:33 40.88202 27.19340 27673 ft 434 kts 285°
2026-05-07 15:33 40.88993 27.15497 28024 ft 436 kts 285°
2026-05-07 15:34 40.89794 27.11602 28402 ft 438 kts 285°
2026-05-07 15:34 40.90594 27.07705 28794 ft 440 kts 285°
2026-05-07 15:34 40.91395 27.03788 29162 ft 442 kts 285°
2026-05-07 15:34 40.92111 26.99835 29522 ft 444 kts 281°
2026-05-07 15:35 40.92420 26.95746 29887 ft 448 kts 272°
2026-05-07 15:35 40.92377 26.91674 30227 ft 450 kts 271°
2026-05-07 15:35 40.92631 26.87553 30549 ft 451 kts 279°
2026-05-07 15:35 40.93269 26.83486 30884 ft 452 kts 284°
2026-05-07 15:36 40.94050 26.79440 31214 ft 454 kts 285°
2026-05-07 15:36 40.94898 26.75404 31532 ft 456 kts 286°
2026-05-07 15:36 40.95774 26.71352 31853 ft 458 kts 286°
2026-05-07 15:36 40.96653 26.67286 32165 ft 460 kts 286°
2026-05-07 15:37 40.97524 26.63204 32449 ft 462 kts 286°
2026-05-07 15:37 40.98362 26.59225 32725 ft 464 kts 286°
2026-05-07 15:37 40.99236 26.55029 33065 ft 464 kts 285°
2026-05-07 15:37 41.00095 26.50865 33528 ft 462 kts 285°
2026-05-07 15:38 41.00937 26.46765 33974 ft 461 kts 285°
2026-05-07 15:38 41.01775 26.42679 34368 ft 459 kts 285°
2026-05-07 15:38 41.02583 26.38725 34679 ft 460 kts 285°
2026-05-07 15:38 41.03436 26.34552 35012 ft 460 kts 285°
2026-05-07 15:39 41.04278 26.30421 35337 ft 460 kts 285°
2026-05-07 15:39 41.05102 26.26372 35673 ft 460 kts 285°
2026-05-07 15:39 41.05934 26.22282 36007 ft 460 kts 285°
2026-05-07 15:39 41.06765 26.18187 36341 ft 460 kts 285°
2026-05-07 15:40 41.07592 26.14102 36685 ft 459 kts 285°
2026-05-07 15:40 41.08417 26.10016 37045 ft 459 kts 285°
2026-05-07 15:40 41.09241 26.05929 37396 ft 458 kts 285°
2026-05-07 15:40 41.10062 26.01851 37737 ft 457 kts 285°
2026-05-07 15:41 41.10879 25.97781 38062 ft 457 kts 285°
2026-05-07 15:41 41.11695 25.93706 38383 ft 457 kts 285°
2026-05-07 15:41 41.12510 25.89629 38688 ft 457 kts 285°
2026-05-07 15:41 41.13321 25.85559 38920 ft 456 kts 285°
2026-05-07 15:42 41.14132 25.81486 39145 ft 456 kts 285°
2026-05-07 15:42 41.14941 25.77419 39417 ft 455 kts 285°
2026-05-07 15:42 41.15747 25.73362 39677 ft 454 kts 285°
2026-05-07 15:42 41.16536 25.69380 39876 ft 454 kts 285°
2026-05-07 15:43 41.17353 25.65248 40061 ft 455 kts 285°
2026-05-07 15:43 41.18157 25.61175 40101 ft 457 kts 285°
2026-05-07 15:43 41.19762 25.53018 40098 ft 456 kts 285°
2026-05-07 15:44 41.21356 25.44876 40099 ft 455 kts 285°
2026-05-07 15:44 41.22943 25.36736 40093 ft 455 kts 284°
2026-05-07 15:45 41.24501 25.28712 40098 ft 454 kts 284°
2026-05-07 15:45 41.26083 25.20536 40099 ft 453 kts 284°
2026-05-07 15:46 41.28425 25.08369 40096 ft 452 kts 284°
2026-05-07 15:47 41.29964 25.00326 40097 ft 452 kts 284°
2026-05-07 15:47 41.31515 24.92191 40099 ft 451 kts 284°
2026-05-07 15:48 41.33054 24.84086 40099 ft 451 kts 284°
2026-05-07 15:48 41.34584 24.75993 40102 ft 450 kts 283°
2026-05-07 15:49 41.36096 24.67962 40103 ft 450 kts 283°
2026-05-07 15:49 41.37611 24.59882 40105 ft 449 kts 283°
2026-05-07 15:50 41.39115 24.51823 40109 ft 448 kts 283°
2026-05-07 15:50 41.40615 24.43753 40110 ft 448 kts 283°
2026-05-07 15:51 41.42107 24.35701 40112 ft 447 kts 283°
2026-05-07 15:51 41.43591 24.27651 40099 ft 447 kts 283°
2026-05-07 15:52 41.45070 24.19600 40106 ft 447 kts 283°
2026-05-07 15:52 41.46541 24.11554 40112 ft 446 kts 283°
2026-05-07 15:53 41.48002 24.03526 40120 ft 446 kts 283°
2026-05-07 15:53 41.49435 23.95618 40115 ft 446 kts 283°
2026-05-07 15:54 41.50900 23.87500 40117 ft 445 kts 283°
2026-05-07 15:54 41.52344 23.79464 40124 ft 445 kts 283°
2026-05-07 15:55 41.53783 23.71420 40122 ft 444 kts 282°
2026-05-07 15:55 41.55212 23.63399 40123 ft 444 kts 282°
2026-05-07 15:56 41.56636 23.55370 40124 ft 444 kts 282°
2026-05-07 15:56 41.58055 23.47337 40126 ft 444 kts 282°
2026-05-07 15:57 41.59467 23.39301 40127 ft 444 kts 282°
2026-05-07 15:57 41.60863 23.31325 40133 ft 444 kts 282°
2026-05-07 15:58 41.62267 23.23273 40134 ft 444 kts 282°
2026-05-07 15:58 41.63664 23.15229 40131 ft 444 kts 282°
2026-05-07 15:59 41.65040 23.07259 40128 ft 443 kts 282°
2026-05-07 15:59 41.66424 22.99209 40129 ft 443 kts 282°
2026-05-07 16:00 41.67803 22.91158 40127 ft 443 kts 282°
2026-05-07 16:00 41.69174 22.83110 40129 ft 443 kts 282°
2026-05-07 16:01 41.70537 22.75079 40123 ft 442 kts 282°
2026-05-07 16:01 41.71893 22.67054 40128 ft 442 kts 282°
2026-05-07 16:02 41.73240 22.59041 40125 ft 441 kts 282°
2026-05-07 16:02 41.74572 22.51081 40124 ft 440 kts 282°
2026-05-07 16:03 41.75905 22.43078 40118 ft 440 kts 282°
2026-05-07 16:03 41.77231 22.35079 40117 ft 440 kts 281°
2026-05-07 16:04 41.78554 22.27061 40111 ft 440 kts 281°
2026-05-07 16:04 41.79862 22.19106 40104 ft 440 kts 281°
2026-05-07 16:05 41.81184 22.11027 40101 ft 440 kts 281°
2026-05-07 16:05 41.82488 22.03014 40098 ft 440 kts 281°
2026-05-07 16:06 41.83792 21.94968 40096 ft 440 kts 281°
2026-05-07 16:06 41.85079 21.86984 40095 ft 440 kts 281°
2026-05-07 16:07 41.86368 21.78955 40099 ft 440 kts 281°
2026-05-07 16:07 41.87648 21.70944 40103 ft 440 kts 281°
2026-05-07 16:08 41.88927 21.62905 40102 ft 439 kts 281°
2026-05-07 16:08 41.90194 21.54896 40105 ft 439 kts 281°
2026-05-07 16:09 41.91452 21.46907 40101 ft 439 kts 281°
2026-05-07 16:09 41.92707 21.38899 40099 ft 438 kts 281°
2026-05-07 16:10 41.93957 21.30888 40099 ft 438 kts 281°
2026-05-07 16:10 41.95202 21.22866 40095 ft 438 kts 281°
2026-05-07 16:11 41.96440 21.14854 40097 ft 438 kts 281°
2026-05-07 16:11 41.97672 21.06832 40097 ft 438 kts 281°
2026-05-07 16:12 41.98896 20.98826 40097 ft 438 kts 281°
2026-05-07 16:12 42.00105 20.90887 40096 ft 438 kts 281°
2026-05-07 16:13 42.01327 20.82821 40097 ft 438 kts 280°
2026-05-07 16:13 42.02485 20.74774 40098 ft 438 kts 278°
2026-05-07 16:14 42.03326 20.66672 40100 ft 438 kts 276°
2026-05-07 16:14 42.04055 20.58533 40099 ft 438 kts 276°
2026-05-07 16:15 42.04619 20.50374 40088 ft 437 kts 274°
2026-05-07 16:15 42.04985 20.42247 40091 ft 438 kts 273°
2026-05-07 16:16 42.05344 20.34079 40094 ft 438 kts 273°
2026-05-07 16:16 42.05730 20.25934 40097 ft 437 kts 273°
2026-05-07 16:17 42.06123 20.17818 40081 ft 438 kts 273°
2026-05-07 16:17 42.06518 20.09534 40082 ft 438 kts 273°
2026-05-07 16:18 42.06901 20.01347 40080 ft 438 kts 273°
2026-05-07 16:18 42.07278 19.93143 40080 ft 438 kts 273°
2026-05-07 16:19 42.07588 19.86334 40074 ft 438 kts 273°
2026-05-07 16:19 42.08013 19.76809 40074 ft 438 kts 273°
2026-05-07 16:20 42.08373 19.68616 40068 ft 438 kts 272°
2026-05-07 16:20 42.08668 19.61804 40065 ft 438 kts 272°
2026-05-07 16:21 42.09018 19.53609 40062 ft 438 kts 272°
2026-05-07 16:21 42.09362 19.45417 40062 ft 437 kts 272°
2026-05-07 16:22 42.09699 19.37239 40063 ft 436 kts 272°
2026-05-07 16:22 42.10029 19.29084 40064 ft 436 kts 272°
2026-05-07 16:23 42.10353 19.20944 40063 ft 435 kts 272°
2026-05-07 16:23 42.10673 19.12816 40063 ft 435 kts 272°
2026-05-07 16:24 42.10983 19.04686 40066 ft 433 kts 272°
2026-05-07 16:24 42.11287 18.96583 40066 ft 433 kts 272°
2026-05-07 16:25 42.11585 18.88522 40064 ft 433 kts 272°
2026-05-07 16:25 42.11879 18.80420 40060 ft 432 kts 272°
2026-05-07 16:26 42.12166 18.72338 40061 ft 432 kts 272°
2026-05-07 16:26 42.12447 18.64247 40064 ft 432 kts 272°
2026-05-07 16:27 42.12723 18.56163 40065 ft 432 kts 272°
2026-05-07 16:27 42.12993 18.48079 40051 ft 431 kts 272°
2026-05-07 16:28 42.13258 18.40003 40055 ft 431 kts 272°
2026-05-07 16:28 42.13515 18.31951 40051 ft 431 kts 272°
2026-05-07 16:29 42.13769 18.23854 40041 ft 431 kts 272°
2026-05-07 16:29 42.14015 18.15792 40050 ft 431 kts 272°
2026-05-07 16:30 42.14255 18.07783 40051 ft 430 kts 272°
2026-05-07 16:30 42.14490 17.99724 40044 ft 430 kts 272°
2026-05-07 16:31 42.14720 17.91659 40037 ft 430 kts 272°
2026-05-07 16:31 42.14944 17.83618 40037 ft 429 kts 272°
2026-05-07 16:32 42.15162 17.75572 40045 ft 429 kts 272°
2026-05-07 16:32 42.15374 17.67548 40047 ft 428 kts 272°
2026-05-07 16:33 42.15580 17.59527 40030 ft 428 kts 271°
2026-05-07 16:33 42.15780 17.51528 40032 ft 427 kts 271°
2026-05-07 16:34 42.15973 17.43592 40033 ft 426 kts 271°
2026-05-07 16:34 42.16161 17.35624 40031 ft 425 kts 271°
2026-05-07 16:35 42.16343 17.27682 40029 ft 424 kts 271°
2026-05-07 16:35 42.16520 17.19746 40026 ft 423 kts 271°
2026-05-07 16:36 42.16690 17.11840 40022 ft 422 kts 271°
2026-05-07 16:36 42.16855 17.03931 40019 ft 421 kts 271°
2026-05-07 16:37 42.17015 16.96027 40015 ft 421 kts 271°
2026-05-07 16:37 42.17168 16.88146 40016 ft 420 kts 271°
2026-05-07 16:38 42.17315 16.80314 40009 ft 420 kts 271°
2026-05-07 16:38 42.17458 16.72444 40009 ft 420 kts 270°
2026-05-07 16:39 42.17595 16.64582 40006 ft 420 kts 270°
2026-05-07 16:39 42.17727 16.56716 40003 ft 420 kts 270°
2026-05-07 16:40 42.17854 16.48872 40003 ft 419 kts 270°
2026-05-07 16:40 42.17975 16.40981 39997 ft 419 kts 270°
2026-05-07 16:41 42.18086 16.33382 39996 ft 419 kts 270°
2026-05-07 16:41 42.18198 16.25454 39993 ft 419 kts 270°
2026-05-07 16:42 42.18302 16.17640 39989 ft 419 kts 270°
2026-05-07 16:42 42.18402 16.09786 39990 ft 419 kts 270°
2026-05-07 16:43 42.18496 16.01925 39987 ft 418 kts 270°
2026-05-07 16:43 42.18585 15.94089 39983 ft 418 kts 270°
2026-05-07 16:44 42.18668 15.86246 39977 ft 418 kts 269°
2026-05-07 16:44 42.18745 15.78509 39979 ft 418 kts 269°
2026-05-07 16:45 42.18818 15.70622 39980 ft 418 kts 269°
2026-05-07 16:45 42.18886 15.62735 39986 ft 418 kts 269°
2026-05-07 16:46 42.18948 15.54955 39986 ft 418 kts 269°
2026-05-07 16:46 42.19004 15.47115 39988 ft 418 kts 269°
2026-05-07 16:47 42.19055 15.39272 39989 ft 418 kts 269°
2026-05-07 16:47 42.19102 15.31427 39989 ft 419 kts 269°
2026-05-07 16:48 42.19142 15.23565 39994 ft 419 kts 269°
2026-05-07 16:48 42.19177 15.15753 39994 ft 419 kts 269°
2026-05-07 16:49 42.19207 15.07882 39993 ft 420 kts 268°
2026-05-07 16:49 42.19232 14.99986 39996 ft 420 kts 268°
2026-05-07 16:50 42.19252 14.92110 39810 ft 419 kts 268°
2026-05-07 16:50 42.19260 14.88185 39579 ft 419 kts 268°
2026-05-07 16:50 42.19267 14.84250 39347 ft 419 kts 268°
2026-05-07 16:50 42.19271 14.80366 39131 ft 418 kts 268°
2026-05-07 16:51 42.19255 14.76462 38912 ft 417 kts 267°
2026-05-07 16:51 42.19202 14.68633 38753 ft 416 kts 267°
2026-05-07 16:51 42.19176 14.64726 38431 ft 415 kts 267°
2026-05-07 16:52 42.19150 14.60822 37825 ft 416 kts 267°
2026-05-07 16:52 42.19122 14.56910 37194 ft 417 kts 267°
2026-05-07 16:52 42.19094 14.52989 36577 ft 419 kts 266°
2026-05-07 16:52 42.19064 14.49046 35979 ft 420 kts 266°
2026-05-07 16:53 42.19033 14.45107 35468 ft 421 kts 266°
2026-05-07 16:53 42.19001 14.41147 35086 ft 423 kts 266°
2026-05-07 16:53 42.18967 14.37173 34833 ft 425 kts 266°
2026-05-07 16:53 42.18932 14.33211 34440 ft 422 kts 266°
2026-05-07 16:54 42.18896 14.29264 33776 ft 419 kts 265°
2026-05-07 16:54 42.18859 14.25387 33059 ft 418 kts 265°
2026-05-07 16:54 42.18818 14.21473 32337 ft 417 kts 266°
2026-05-07 16:54 42.18778 14.17566 31618 ft 417 kts 266°
2026-05-07 16:55 42.18737 14.13662 30885 ft 417 kts 266°
2026-05-07 16:55 42.18693 14.09742 30115 ft 420 kts 266°
2026-05-07 16:55 42.18646 14.05779 29225 ft 424 kts 266°
2026-05-07 16:55 42.18600 14.01803 28527 ft 423 kts 266°
2026-05-07 16:56 42.18554 13.97848 27982 ft 420 kts 266°
2026-05-07 16:56 42.18508 13.93923 27418 ft 417 kts 266°
2026-05-07 16:56 42.18402 13.86128 26294 ft 414 kts 266°
2026-05-07 16:57 42.18352 13.82262 25734 ft 412 kts 266°
2026-05-07 16:57 42.18302 13.78463 25170 ft 409 kts 266°
2026-05-07 16:57 42.18250 13.74644 24610 ft 407 kts 266°
2026-05-07 16:57 42.18195 13.70832 24056 ft 406 kts 266°
2026-05-07 16:58 42.18140 13.67031 23477 ft 404 kts 266°
2026-05-07 16:58 42.18085 13.63259 22881 ft 402 kts 266°
2026-05-07 16:58 42.18029 13.59509 22310 ft 400 kts 266°
2026-05-07 16:58 42.17970 13.55751 21750 ft 398 kts 266°
2026-05-07 16:59 42.17910 13.52027 21188 ft 395 kts 266°
2026-05-07 16:59 42.17849 13.48329 20636 ft 393 kts 266°
2026-05-07 16:59 42.17788 13.44650 20058 ft 390 kts 266°
2026-05-07 16:59 42.17727 13.41006 19509 ft 388 kts 266°
2026-05-07 17:00 42.17665 13.37420 18954 ft 385 kts 266°
2026-05-07 17:00 42.17602 13.33815 18374 ft 383 kts 266°
2026-05-07 17:00 42.17541 13.30234 17767 ft 381 kts 265°
2026-05-07 17:00 42.17474 13.26684 17169 ft 377 kts 266°
2026-05-07 17:01 42.17407 13.23163 16604 ft 374 kts 266°
2026-05-07 17:01 42.17341 13.19675 16021 ft 371 kts 266°
2026-05-07 17:01 42.17284 13.16204 15471 ft 371 kts 267°
2026-05-07 17:01 42.17220 13.12742 14885 ft 368 kts 266°
2026-05-07 17:02 42.17146 13.09299 14321 ft 365 kts 266°
2026-05-07 17:02 42.17075 13.05895 13742 ft 362 kts 266°
2026-05-07 17:02 42.17004 13.02517 13127 ft 358 kts 266°
2026-05-07 17:02 42.16938 12.99254 12634 ft 339 kts 266°
2026-05-07 17:03 42.16873 12.96085 12045 ft 337 kts 266°
2026-05-07 17:03 42.16806 12.92977 11670 ft 320 kts 266°
2026-05-07 17:03 42.16749 12.90123 11446 ft 291 kts 266°
2026-05-07 17:03 42.16695 12.87464 11331 ft 283 kts 266°
2026-05-07 17:04 42.16634 12.84810 11209 ft 283 kts 266°
2026-05-07 17:04 42.16574 12.82165 11086 ft 283 kts 266°
2026-05-07 17:04 42.16513 12.79513 10967 ft 283 kts 266°
2026-05-07 17:04 42.16452 12.76866 10838 ft 282 kts 266°
2026-05-07 17:05 42.16391 12.74233 10720 ft 281 kts 266°
2026-05-07 17:05 42.16351 12.72487 10610 ft 281 kts 266°
2026-05-07 17:05 42.16270 12.69001 10351 ft 280 kts 266°
2026-05-07 17:05 42.16208 12.66382 10083 ft 279 kts 266°
2026-05-07 17:06 42.16146 12.63768 9762 ft 278 kts 266°
2026-05-07 17:06 42.16104 12.62008 9553 ft 277 kts 266°
2026-05-07 17:06 42.16042 12.59409 9288 ft 273 kts 266°
2026-05-07 17:06 42.15985 12.56950 9053 ft 258 kts 266°
2026-05-07 17:07 42.15928 12.54588 8727 ft 251 kts 265°
2026-05-07 17:07 42.15869 12.52224 8439 ft 247 kts 265°
2026-05-07 17:07 42.15812 12.49951 8170 ft 245 kts 265°
2026-05-07 17:07 42.15753 12.47648 7945 ft 245 kts 265°
2026-05-07 17:08 42.15694 12.45359 7656 ft 242 kts 265°
2026-05-07 17:08 42.15638 12.43111 7399 ft 238 kts 265°
2026-05-07 17:08 42.15580 12.40884 7142 ft 238 kts 265°
2026-05-07 17:08 42.15519 12.38631 6911 ft 243 kts 265°
2026-05-07 17:09 42.15460 12.36357 6618 ft 243 kts 265°
2026-05-07 17:09 42.15401 12.34092 6358 ft 241 kts 265°
2026-05-07 17:09 42.15342 12.31842 6082 ft 241 kts 265°
2026-05-07 17:09 42.15282 12.29575 5899 ft 240 kts 264°
2026-05-07 17:10 42.15222 12.27335 5680 ft 239 kts 265°
2026-05-07 17:10 42.15161 12.25101 5473 ft 235 kts 265°
2026-05-07 17:10 42.15065 12.22951 5266 ft 234 kts 259°
2026-05-07 17:10 42.14577 12.20878 5028 ft 232 kts 239°
2026-05-07 17:11 42.13543 12.19238 4689 ft 230 kts 216°
2026-05-07 17:11 42.12098 12.18284 4395 ft 242 kts 196°
2026-05-07 17:11 42.10402 12.17741 4332 ft 252 kts 192°
2026-05-07 17:11 42.08736 12.17278 4236 ft 238 kts 192°
2026-05-07 17:12 42.07136 12.16949 4120 ft 229 kts 182°
2026-05-07 17:12 42.05593 12.17260 4028 ft 220 kts 166°
2026-05-07 17:12 42.04173 12.17868 3939 ft 209 kts 162°
2026-05-07 17:12 42.02822 12.18471 3884 ft 199 kts 163°
2026-05-07 17:13 42.01528 12.19025 3696 ft 192 kts 164°
2026-05-07 17:13 42.00257 12.19560 3413 ft 190 kts 164°
2026-05-07 17:13 41.99005 12.20089 3139 ft 186 kts 164°
2026-05-07 17:13 41.97799 12.20599 2892 ft 177 kts 163°
2026-05-07 17:14 41.96662 12.21076 2650 ft 166 kts 163°
2026-05-07 17:14 41.95588 12.21529 2425 ft 157 kts 163°
2026-05-07 17:14 41.94590 12.21950 2224 ft 144 kts 163°
2026-05-07 17:14 41.93670 12.22338 2030 ft 134 kts 163°
2026-05-07 17:15 41.92799 12.22704 1869 ft 132 kts 163°
2026-05-07 17:15 41.91913 12.23076 1680 ft 132 kts 163°
2026-05-07 17:15 41.91047 12.23441 1510 ft 132 kts 163°
2026-05-07 17:15 41.90171 12.23809 1329 ft 132 kts 163°
2026-05-07 17:16 41.89301 12.24176 1147 ft 131 kts 165°
2026-05-07 17:16 41.88430 12.24541 815 ft 132 kts 164°
2026-05-07 17:16 41.87540 12.24917 664 ft 137 kts 166°
2026-05-07 17:16 41.86625 12.25314 457 ft 139 kts 166°
2026-05-07 17:17 41.85699 12.25709 312 ft 142 kts 166°
2026-05-07 17:17 41.84758 12.26095 113 ft 141 kts 167°
2026-05-07 17:17 41.83826 12.26471 30 ft 133 kts 164°
2026-05-07 17:17 41.83134 12.26760 28 ft 64 kts 163°
2026-05-07 17:18 41.82975 12.26826 28 ft 0 kts 163°
2026-05-07 17:18 41.82927 12.26843 28 ft 19 kts 167°
2026-05-07 17:18 41.82785 12.26869 30 ft 21 kts 179°
2026-05-07 17:18 41.82632 12.26845 26 ft 24 kts 191°
2026-05-07 17:19 41.82456 12.26796 24 ft 27 kts 193°
2026-05-07 17:19 41.82276 12.26798 23 ft 27 kts 165°
2026-05-07 17:19 41.82089 12.26876 21 ft 29 kts 163°
2026-05-07 17:19 41.81941 12.26937 22 ft 20 kts 165°
2026-05-07 17:20 41.81798 12.26929 23 ft 22 kts 192°
2026-05-07 17:20 41.81653 12.26918 27 ft 20 kts 165°
2026-05-07 17:20 41.81513 12.26977 30 ft 23 kts 162°
2026-05-07 17:20 41.81351 12.27047 30 ft 26 kts 162°
2026-05-07 17:21 41.81165 12.27125 22 ft 30 kts 163°
2026-05-07 17:21 41.80969 12.27207 18 ft 31 kts 162°
2026-05-07 17:21 41.80767 12.27285 20 ft 26 kts 173°
2026-05-07 17:21 41.80651 12.27195 21 ft 19 kts 242°
2026-05-07 17:22 41.80601 12.27022 22 ft 21 kts 249°
2026-05-07 17:22 41.80546 12.26826 24 ft 23 kts 250°
2026-05-07 17:22 41.80488 12.26616 23 ft 25 kts 250°
2026-05-07 17:22 41.80427 12.26393 21 ft 26 kts 250°
2026-05-07 17:23 41.80362 12.26164 21 ft 25 kts 246°
2026-05-07 17:23 41.80230 12.26042 21 ft 23 kts 203°
2026-05-07 17:23 41.80080 12.25950 25 ft 24 kts 205°
2026-05-07 17:23 41.79936 12.25860 27 ft 19 kts 205°
2026-05-07 17:24 41.79868 12.25770 28 ft 10 kts 283°
2026-05-07 17:24 41.79900 12.25686 29 ft 11 kts 297°
2026-05-07 17:24 41.79936 12.25581 27 ft 14 kts 294°
2026-05-07 17:24 41.79980 12.25454 25 ft 16 kts 295°
2026-05-07 17:25 41.79991 12.25357 25 ft 7 kts 253°
2026-05-07 17:25 41.79963 12.25327 27 ft 5 kts 201°
2026-05-07 17:25 41.79957 12.25323 28 ft 0 kts 202°